Location: ??????????
(41.2581°N, 22.8006°E)
Time: 23:48:21
(UTC+00:00)

COSMOS 2455 - Pass Details

Date: 13 December 2025
Orbit: 898 x 910 km, 67.1° (Epoch: 19 January)

Event Time Altitude Azimuth Distance (km) Brightness Sun altitude
Rises 15:45:01 0° 164° (SSE) 3,512 6.0 -8.3°
Reaches altitude 10° 15:48:14 10° 146° (SSE) 2,579 5.1 -8.9°
Maximum altitude 15:52:15 19° 104° (ESE) 2,025 4.2 -9.6°
Enters shadow 15:55:26 13° 68° (ENE) 2,400 4.4 -10.2°
